When you browse on this site, cookies collect data to enhance your experience and personalize the content and advertising you see.
Visit our Privacy Policy to learn more. By continuing to use the site, you agree to this use of cookies and data.

Hourly Weather Kloten

Today, 12 August, Wednesday

Time Temperature Precipitation Wind Pressure Humidity
00:00 +19°C° 0.1 mm 0 mps 722 mmHg 87%
01:00 +21°C° 0 mm 1 mps 722 mmHg 87%
02:00 +20°C° 0 mm 1 mps 722 mmHg 87%
03:00 +18°C° 0 mm 0 mps 722 mmHg 87%
04:00 +18°C° 0 mm 0 mps 722 mmHg 87%
05:00 +18°C° 0.1 mm 0 mps 722 mmHg 87%
06:00 +19°C° 0.1 mm 0 mps 722 mmHg 87%
07:00 +20°C° 0 mm 0 mps 722 mmHg 87%
08:00 +22°C° 0.2 mm 0 mps 722 mmHg 80%
09:00 +24°C° 0.2 mm 0 mps 722 mmHg 73%
10:00 +26°C° 0.2 mm 0 mps 722 mmHg 66%
11:00 +28°C° 0.1 mm 0 mps 722 mmHg 60%
12:00 +29°C° 0.1 mm 0 mps 723 mmHg 54%
13:00 +31°C° 0 mm 0 mps 723 mmHg 48%
14:00 +33°C° 0 mm 1 mps 722 mmHg 47%
15:00 +33°C° 0 mm 1 mps 722 mmHg 46%
16:00 +33°C° 0 mm 1 mps 722 mmHg 46%
17:00 +29°C° 1.8 mm 2 mps 722 mmHg 60%
18:00 +26°C° 1.8 mm 3 mps 722 mmHg 74%
19:00 +22°C° 1.8 mm 5 mps 722 mmHg 88%
20:00 +21°C° 2.5 mm 3 mps 722 mmHg 89%
21:00 +20°C° 2.5 mm 2 mps 722 mmHg 91%
22:00 +20°C° 2.5 mm 1 mps 722 mmHg 92%
23:00 +20°C° 0 mm 1 mps 722 mmHg 91%

Tomorrow, 13 August, Thursday

Time Temperature Precipitation Wind Pressure Humidity
00:00 +20°C° 0 mm 1 mps 722 mmHg 91%
01:00 +20°C° 0 mm 1 mps 722 mmHg 90%
02:00 +20°C° 0 mm 1 mps 722 mmHg 88%
03:00 +20°C° 0 mm 1 mps 721 mmHg 87%
04:00 +20°C° 0 mm 1 mps 721 mmHg 85%
05:00 +20°C° 0 mm 1 mps 721 mmHg 86%
06:00 +21°C° 0 mm 1 mps 721 mmHg 87%
07:00 +19°C° 0 mm 0 mps 722 mmHg 88%
08:00 +21°C° 0 mm 0 mps 722 mmHg 80%
09:00 +23°C° 0 mm 0 mps 722 mmHg 72%
10:00 +25°C° 0 mm 0 mps 722 mmHg 64%
11:00 +28°C° 0.1 mm 1 mps 722 mmHg 59%
12:00 +29°C° 0.1 mm 1 mps 722 mmHg 54%
13:00 +30°C° 0.1 mm 1 mps 722 mmHg 50%
14:00 +30°C° 0.2 mm 1 mps 722 mmHg 51%
15:00 +29°C° 0.2 mm 2 mps 722 mmHg 52%
16:00 +29°C° 0.2 mm 2 mps 722 mmHg 54%
17:00 +27°C° 0.4 mm 2 mps 722 mmHg 63%
18:00 +25°C° 0.4 mm 2 mps 722 mmHg 73%
19:00 +23°C° 0.4 mm 1 mps 721 mmHg 82%
20:00 +22°C° 0.1 mm 1 mps 721 mmHg 85%
21:00 +21°C° 0.1 mm 1 mps 722 mmHg 87%
22:00 +20°C° 0.1 mm 1 mps 722 mmHg 89%
23:00 +20°C° 0.3 mm 1 mps 722 mmHg 91%

Day after tomorrow, 14 August, Friday

Time Temperature Precipitation Wind Pressure Humidity
00:00 +20°C° 0.3 mm 1 mps 722 mmHg 93%
01:00 +20°C° 0.3 mm 1 mps 722 mmHg 94%
02:00 +19°C° 0.1 mm 1 mps 722 mmHg 94%
03:00 +19°C° 0.1 mm 1 mps 721 mmHg 94%
04:00 +19°C° 0.1 mm 1 mps 721 mmHg 93%
05:00 +19°C° 0.1 mm 1 mps 722 mmHg 94%
06:00 +20°C° 0.1 mm 1 mps 722 mmHg 94%
07:00 +20°C° 0.1 mm 1 mps 722 mmHg 94%
08:00 +21°C° 0.1 mm 1 mps 722 mmHg 87%
09:00 +23°C° 0.1 mm 2 mps 722 mmHg 79%
10:00 +24°C° 0.1 mm 2 mps 722 mmHg 72%
11:00 +25°C° 0.2 mm 2 mps 722 mmHg 68%
12:00 +26°C° 0.2 mm 2 mps 722 mmHg 64%
13:00 +27°C° 0.2 mm 1 mps 722 mmHg 59%
14:00 +27°C° 0.4 mm 1 mps 722 mmHg 62%
15:00 +27°C° 0.4 mm 1 mps 721 mmHg 65%
16:00 +26°C° 0.4 mm 1 mps 721 mmHg 67%
17:00 +25°C° 0.3 mm 1 mps 721 mmHg 73%
18:00 +23°C° 0.3 mm 1 mps 721 mmHg 79%
19:00 +22°C° 0.3 mm 1 mps 721 mmHg 85%
20:00 +21°C° 0 mm 1 mps 721 mmHg 86%
21:00 +20°C° 0 mm 1 mps 722 mmHg 88%
22:00 +19°C° 0 mm 1 mps 722 mmHg 90%
23:00 +18°C° 0 mm 1 mps 722 mmHg 90%

15 August, Saturday

Time Temperature Precipitation Wind Pressure Humidity
00:00 +16°C° 0 mm 0 mps 722 mmHg 91%
01:00 +15°C° 0 mm 0 mps 721 mmHg 92%
02:00 +15°C° 0 mm 0 mps 721 mmHg 92%
03:00 +15°C° 0 mm 0 mps 721 mmHg 93%
04:00 +15°C° 0 mm 0 mps 721 mmHg 93%
05:00 +15°C° 0 mm 0 mps 721 mmHg 92%
06:00 +16°C° 0 mm 0 mps 721 mmHg 91%
07:00 +17°C° 0 mm 0 mps 721 mmHg 90%
08:00 +19°C° 0 mm 0 mps 722 mmHg 81%
09:00 +21°C° 0 mm 0 mps 722 mmHg 73%
10:00 +24°C° 0 mm 0 mps 722 mmHg 65%
11:00 +25°C° 0 mm 0 mps 722 mmHg 60%
12:00 +28°C° 0 mm 1 mps 722 mmHg 55%
13:00 +29°C° 0 mm 1 mps 721 mmHg 50%
14:00 +29°C° 0 mm 1 mps 721 mmHg 49%
15:00 +29°C° 0 mm 1 mps 721 mmHg 49%
16:00 +29°C° 0 mm 1 mps 721 mmHg 49%
17:00 +27°C° 0 mm 1 mps 721 mmHg 57%
18:00 +25°C° 0 mm 1 mps 720 mmHg 66%
19:00 +24°C° 0 mm 1 mps 720 mmHg 75%
20:00 +22°C° 0 mm 1 mps 720 mmHg 80%
21:00 +21°C° 0 mm 1 mps 721 mmHg 84%
22:00 +20°C° 0 mm 1 mps 721 mmHg 88%
23:00 +19°C° 0 mm 1 mps 720 mmHg 89%

16 August, Sunday

Time Temperature Precipitation Wind Pressure Humidity
00:00 +19°C° 0 mm 1 mps 720 mmHg 90%
01:00 +16°C° 0 mm 0 mps 720 mmHg 91%
02:00 +16°C° 0 mm 0 mps 720 mmHg 92%
03:00 +15°C° 0 mm 0 mps 720 mmHg 93%
04:00 +15°C° 0 mm 0 mps 720 mmHg 93%
05:00 +16°C° 0 mm 0 mps 720 mmHg 92%
06:00 +17°C° 0 mm 0 mps 720 mmHg 90%
07:00 +17°C° 0 mm 0 mps 720 mmHg 88%
08:00 +20°C° 0 mm 0 mps 720 mmHg 80%
09:00 +22°C° 0 mm 0 mps 721 mmHg 72%
10:00 +25°C° 0 mm 0 mps 721 mmHg 63%
11:00 +26°C° 0 mm 0 mps 721 mmHg 57%
12:00 +28°C° 0 mm 0 mps 721 mmHg 51%
13:00 +31°C° 0 mm 1 mps 721 mmHg 45%
14:00 +31°C° 0 mm 1 mps 720 mmHg 44%
15:00 +31°C° 0 mm 1 mps 720 mmHg 42%
16:00 +30°C° 0 mm 1 mps 720 mmHg 41%
17:00 +28°C° 0 mm 1 mps 720 mmHg 49%
18:00 +24°C° 0 mm 0 mps 720 mmHg 57%
19:00 +22°C° 0 mm 0 mps 720 mmHg 65%
20:00 +21°C° 0 mm 0 mps 720 mmHg 68%
21:00 +22°C° 0 mm 1 mps 720 mmHg 71%
22:00 +20°C° 0 mm 1 mps 719 mmHg 74%
23:00 +20°C° 0 mm 1 mps 719 mmHg 76%

17 August, Monday

Time Temperature Precipitation Wind Pressure Humidity
00:00 +19°C° 0 mm 1 mps 719 mmHg 78%
01:00 +19°C° 0 mm 1 mps 719 mmHg 79%
02:00 +16°C° 0 mm 0 mps 719 mmHg 81%
03:00 +16°C° 0 mm 0 mps 719 mmHg 82%
04:00 +16°C° 0 mm 0 mps 719 mmHg 83%
05:00 +16°C° 0 mm 0 mps 719 mmHg 82%
06:00 +17°C° 0 mm 0 mps 719 mmHg 82%
07:00 +18°C° 0 mm 0 mps 719 mmHg 81%
08:00 +21°C° 0 mm 1 mps 719 mmHg 76%
09:00 +23°C° 0 mm 1 mps 719 mmHg 70%
10:00 +25°C° 0 mm 2 mps 720 mmHg 65%
11:00 +24°C° 0.7 mm 2 mps 719 mmHg 70%
12:00 +24°C° 0.7 mm 3 mps 719 mmHg 76%
13:00 +24°C° 0.7 mm 3 mps 719 mmHg 81%
14:00 +24°C° 0.5 mm 2 mps 719 mmHg 83%
15:00 +23°C° 0.5 mm 2 mps 719 mmHg 84%
16:00 +23°C° 0.5 mm 1 mps 719 mmHg 85%
17:00 +22°C° 0.3 mm 1 mps 719 mmHg 86%
18:00 +22°C° 0.3 mm 1 mps 719 mmHg 87%
19:00 +21°C° 0.3 mm 1 mps 720 mmHg 88%
20:00 +18°C° 0.2 mm 0 mps 720 mmHg 89%
21:00 +17°C° 0.2 mm 0 mps 720 mmHg 90%
22:00 +16°C° 0.2 mm 0 mps 720 mmHg 91%
23:00 +18°C° 0.5 mm 1 mps 720 mmHg 92%
Show more